Change the Weather History Date:

Friday, September 6, 2013

  Actual Average Record
Temperature  
Mean Temperature 52 °F 63 °F  
Max Temperature 68 °F 74 °F 92 °F (1971)
Min Temperature 36 °F 52 °F 32 °F (2000)
Degree Days  
Heating Degree Days 13 4  
Month to date heating degree days 24 20  
Since 1 July heating degree days 67 92  
Cooling Degree Days 0 2  
Month to date cooling degree days 17 12  
Year to date cooling degree days 450 336  
Growing Degree Days 2 (Base 50)    
Moisture  
Dew Point 43 °F    
Average Humidity 68    
Maximum Humidity 100    
Minimum Humidity 35    
Precipitation  
Precipitation 0.00 in 0.11 in 0.97 in (1979)
Month to date precipitation 0.81 0.65  
Year to date precipitation 22.61 22.45  
Sea Level Pressure  
Sea Level Pressure 30.20 in    
Wind  
Wind Speed 5 mph (SW)    
Max Wind Speed 20 mph    
Max Gust Speed 24 mph    
Visibility 10 miles    
Events      
T = Trace of Precipitation, MM = Missing Value Source: NWS Daily Summary

Daily Weather History Graph

Daily Weather History Graph

Search for Another Location

Airport or City:

Trip Planner

Search our weather history database for the weather conditions in past years. The results will help you decide how hot, cold, wet, or windy it might be!

Date:

Astronomy

Sep. 06, 2013 Rise Set
Actual Time 6:33 AM EDT 7:30 PM EDT
Civil Twilight 6:03 AM EDT 7:59 PM EDT
Nautical Twilight 5:28 AM EDT 8:34 PM EDT
Astronomical Twilight 4:51 AM EDT 9:11 PM EDT
Moon 7:47 AM EDT (9/6) 7:48 PM EDT (9/6)
Length of Visible Light 13h 56m
Length of Day
12h 57m
New Moon, 1% of the Moon is Illuminated
Sep 6
New Moon
Sep 12
First Quarter
Sep 19
Full
Sep 26
Last Quarter
Oct 4
New

Hourly Weather History & Observations

Time (EDT) Temp. Windchill Dew Point Humidity Pressure Visibility Wind Dir Wind Speed Gust Speed Precip Events Conditions
12:56 AM 39.9 °F - 37.9 °F 93% 30.21 in 10.0 mi Calm Calm - N/A   Clear
1:56 AM 39.0 °F - 37.0 °F 93% 30.22 in 10.0 mi Calm Calm - N/A   Clear
2:56 AM 39.0 °F 36.8 °F 37.0 °F 93% 30.23 in 10.0 mi East 3.5 mph - N/A   Clear
3:56 AM 37.9 °F - 36.0 °F 93% 30.24 in 10.0 mi Calm Calm - N/A   Clear
4:56 AM 39.0 °F - 37.0 °F 93% 30.25 in 10.0 mi Calm Calm - N/A   Clear
5:56 AM 36.0 °F - 35.1 °F 97% 30.25 in 10.0 mi Calm Calm - N/A   Clear
6:56 AM 39.0 °F - 37.0 °F 93% 30.26 in 10.0 mi Calm Calm - N/A   Clear
7:56 AM 46.9 °F - 39.9 °F 77% 30.28 in 10.0 mi Calm Calm - N/A   Clear
8:56 AM 55.0 °F - 44.1 °F 67% 30.27 in 10.0 mi Calm Calm - N/A   Clear
9:56 AM 61.0 °F - 41.0 °F 48% 30.27 in 10.0 mi Calm Calm - N/A   Clear
10:56 AM 64.0 °F - 43.0 °F 46% 30.26 in 10.0 mi WSW 5.8 mph - N/A   Clear
11:56 AM 64.9 °F - 43.0 °F 45% 30.26 in 10.0 mi West 10.4 mph 21.9 mph N/A   Partly Cloudy
12:56 PM 66.9 °F - 44.1 °F 44% 30.23 in 10.0 mi SW 9.2 mph 17.3 mph N/A   Clear
1:56 PM 66.9 °F - 45.0 °F 45% 30.22 in 10.0 mi West 15.0 mph - N/A   Clear
2:56 PM 68.0 °F - 39.0 °F 35% 30.20 in 10.0 mi WSW 15.0 mph 23.0 mph N/A   Clear
3:56 PM 66.0 °F - 43.0 °F 43% 30.18 in 10.0 mi WSW 12.7 mph - N/A   Clear
4:56 PM 66.9 °F - 45.0 °F 45% 30.16 in 10.0 mi WSW 10.4 mph 18.4 mph N/A   Mostly Cloudy
5:56 PM 64.0 °F - 46.9 °F 54% 30.15 in 10.0 mi WSW 8.1 mph - N/A   Scattered Clouds
6:56 PM 63.0 °F - 48.0 °F 58% 30.14 in 10.0 mi SW 6.9 mph - N/A   Mostly Cloudy
7:56 PM 60.1 °F - 48.9 °F 67% 30.12 in 10.0 mi South 4.6 mph - N/A   Clear
8:56 PM 57.9 °F - 50.0 °F 75% 30.11 in 10.0 mi South 4.6 mph - N/A   Clear
9:56 PM 57.0 °F - 50.0 °F 77% 30.10 in 10.0 mi SSE 6.9 mph - N/A   Clear
10:56 PM 57.0 °F - 50.0 °F 77% 30.09 in 10.0 mi South 4.6 mph - N/A   Clear
11:56 PM 59.0 °F - 50.0 °F 72% 30.06 in 10.0 mi South 4.6 mph - N/A   Clear